Weather observations for the past three days for
Winchester Regional
Imperial (Metric)
Date Time (edt) Wind (mph) Vis. (mi.) Weather Sky Cond. Temperature (ºF) Relative Humidity Wind Chill (°F) Heat Index (°F) Pressure Precipitation (in)
Air Dwpt 6 hour altimeter (in) sea level (mb) 1 hr 3 hr 6 hr
Max. Min.
20 07:35 SW 3 10.00 Fair CLR 69.8 62.6 78% 30.34 0.0
20 07:15 Calm 10.00 Fair CLR 68 62.6 83% 30.33 0.0
20 06:55 Calm 10.00 Fair CLR 66.2 62.6 88% 30.34 0.0
20 06:35 Calm 10.00 Fair CLR 64.4 62.6 94% 30.33 0.0
20 06:15 Calm 10.00 Fair CLR 62.6 62.6 100% 30.33 0.0
20 05:55 Calm 10.00 Fair CLR 62.6 62.6 100% 30.32 0.0
20 05:35 Calm 10.00 Fair CLR 62.6 62.6 100% 30.32 0.0
20 05:15 Calm 10.00 Fair CLR 62.6 62.6 100% 30.32 0.0
20 04:55 Calm 10.00 Fair CLR 64.4 62.6 94% 30.32 0.0
20 04:35 Calm 10.00 Fair CLR 62.6 62.6 100% 30.32 0.0
20 04:15 Calm 10.00 Fair CLR 64.4 62.6 94% 30.32 0.0
20 03:55 Calm 10.00 Fair CLR 64.4 62.6 94% 30.31 0.0
20 03:35 Calm 10.00 Fair CLR 64.4 60.8 88% 30.31 0.0
20 03:15 Calm 10.00 Fair CLR 66.2 62.6 88% 30.31 0.0
20 02:55 Calm 10.00 Fair CLR 66.2 62.6 88% 30.32 0.0
20 02:35 Calm 10.00 Fair CLR 66.2 62.6 88% 30.32 0.0
20 02:15 Calm 10.00 Fair CLR 68 62.6 83% 30.32 0.0
20 01:55 Calm 10.00 Fair CLR 69.8 62.6 78% 30.32 0.0
20 01:35 Calm 10.00 Fair CLR 71.6 62.6 73% 30.32 0.0
20 01:15 S 3 10.00 Fair CLR 69.8 62.6 78% 30.32 0.0
20 00:55 S 3 10.00 Fair CLR 71.6 62.6 73% 30.32 0.0
20 00:35 S 5 10.00 Fair CLR 71.6 62.6 73% 30.32 0.0
20 00:15 S 7 10.00 Fair CLR 71.6 62.6 73% 30.33 0.0
19 23:55 SE 5 10.00 Fair CLR 68 62.6 83% 30.33 0.0
19 23:35 SE 3 10.00 Fair CLR 69.8 62.6 78% 30.34 0.0
19 23:15 Calm 10.00 Fair CLR 69.8 62.6 78% 30.34 0.0
19 22:55 Calm 10.00 Fair CLR 69.8 62.6 78% 30.33 0.0
19 22:35 Calm 10.00 Fair CLR 71.6 62.6 73% 30.33 0.0
19 22:15 Calm 10.00 Fair CLR 71.6 62.6 73% 30.32 0.0
19 21:55 SE 3 10.00 Fair CLR 73.4 62.6 69% 30.32 0.0
19 21:35 SE 5 10.00 Fair CLR 75.2 62.6 65% 77 30.31 0.0
19 21:15 SE 3 10.00 Fair CLR 77 62.6 61% 79 30.3 0.0
19 20:55 SE 5 10.00 Fair CLR 77 62.6 61% 79 30.3 0.0
19 20:35 SE 6 10.00 Fair CLR 77 62.6 61% 79 30.3 0.0
19 20:15 SE 6 10.00 Fair CLR 78.8 62.6 58% 80 30.29 0.0
19 19:55 SE 6 10.00 Fair CLR 80.6 62.6 54% 82 30.29 0.0
19 19:35 SE 7 10.00 Fair CLR 82.4 62.6 51% 83 30.29 0.0
19 19:15 SE 6 10.00 Fair CLR 82.4 62.6 51% 83 30.3 0.0
19 18:55 SE 5 10.00 Fair CLR 82.4 60.8 48% 83 30.29 0.0
19 18:35 SE 8 10.00 Fair CLR 82.4 60.8 48% 83 30.29 0.0
19 18:15 SE 7 G 18 10.00 Fair CLR 84.2 60.8 45% 84 30.3 0.0
19 17:55 S 8 10.00 Fair CLR 86 60.8 43% 86 30.29 0.0
19 17:35 S 8 10.00 Fair CLR 86 60.8 43% 86 30.3 0.0
19 17:15 SE 7 10.00 Fair CLR 86 60.8 43% 86 30.3 0.0
19 16:55 SE 7 10.00 Fair CLR 86 60.8 43% 86 30.3 0.0
19 16:35 SE 9 10.00 Fair CLR 86 60.8 43% 86 30.31 0.0
19 16:15 SE 12 10.00 Fair CLR 87.8 60.8 40% 88 30.31 0.0
19 15:55 S 7 10.00 Fair CLR 87.8 60.8 40% 88 30.32 0.0
19 15:35 SE 7 10.00 Fair CLR 87.8 60.8 40% 88 30.32 0.0
19 15:15 S 7 10.00 Fair CLR 86 60.8 43% 86 30.32 0.0
19 14:55 E 8 10.00 Fair CLR 87.8 60.8 40% 88 30.32 0.0
19 14:35 E 6 10.00 Fair CLR 86 60.8 43% 86 30.32 0.0
19 12:15 SE 6 10.00 Partly Cloudy SCT044 84.2 64.4 51% 86 30.35 0.0
19 11:55 Calm 10.00 Mostly Cloudy BKN042 82.4 64.4 55% 84 30.35 0.0
19 11:35 SE 7 10.00 Partly Cloudy SCT042 86 64.4 49% 87 30.35 0.0
19 11:15 E 5 10.00 Partly Cloudy SCT039 SCT047 84.2 64.4 51% 86 30.35 0.0
19 10:55 NE 3 10.00 Partly Cloudy SCT037 82.4 64.4 55% 84 30.35 0.0
19 10:35 E 6 10.00 Fair CLR 82.4 66.2 58% 85 30.35 0.0
19 10:15 Calm 10.00 Fair CLR 80.6 64.4 58% 82 30.35 0.0
19 09:55 Calm 10.00 Fair CLR 80.6 64.4 58% 82 30.35 0.0
19 09:35 Calm 10.00 Fair CLR 78.8 64.4 61% 81 30.35 0.0
19 09:15 S 3 10.00 Fair CLR 78.8 64.4 61% 81 30.35 0.0
19 08:55 SE 5 10.00 Fair CLR 77 64.4 65% 79 30.35 0.0
19 08:35 Calm 10.00 Fair CLR 75.2 64.4 69% 77 30.34 0.0
19 08:15 Calm 10.00 Fair CLR 73.4 64.4 74% 30.33 0.0
19 07:55 Calm 10.00 Fair CLR 71.6 64.4 78% 30.33 0.0
19 07:35 Calm 10.00 Fair CLR 71.6 64.4 78% 30.33 0.0
19 07:15 Calm 10.00 Fair CLR 68 64.4 88% 30.32 0.0
19 06:55 Calm 10.00 Fair CLR 68 64.4 88% 30.32 0.0
19 06:35 Calm 10.00 Fair CLR 64.4 62.6 94% 30.32 0.0
19 06:15 Calm 10.00 Fair CLR 64.4 62.6 94% 30.31 0.0
19 05:55 Calm 10.00 Fair CLR 64.4 62.6 94% 30.31 0.0
19 05:35 Calm 10.00 Fair CLR 64.4 62.6 94% 30.31 0.0
19 05:15 Calm 10.00 Fair CLR 66.2 62.6 88% 30.3 0.0
19 04:55 Calm 10.00 Fair CLR 66.2 62.6 88% 30.29 0.0
19 04:35 Calm 10.00 Fair CLR 68 62.6 83% 30.29 0.0
19 04:15 Calm 10.00 Fair CLR 68 62.6 83% 30.29 0.0
19 03:55 S 3 10.00 Fair CLR 68 62.6 83% 30.28 0.0
19 03:35 S 5 10.00 Mostly Cloudy BKN050 69.8 64.4 83% 30.28 0.0
19 03:15 S 3 10.00 Mostly Cloudy BKN050 68 62.6 83% 30.28 0.0
19 02:55 S 5 10.00 Fair CLR 71.6 64.4 78% 30.27 0.0
19 02:35 S 5 10.00 Fair CLR 69.8 64.4 83% 30.27 0.0
19 02:15 S 3 10.00 Fair CLR 69.8 64.4 83% 30.27 0.0
19 01:55 S 3 10.00 Fair CLR 71.6 64.4 78% 30.27 0.0
19 01:35 Calm 10.00 Fair CLR 71.6 64.4 78% 30.27 0.0
19 00:55 Calm 10.00 Fair CLR 71.6 64.4 78% 30.26 0.0
19 00:35 Calm 10.00 Fair CLR 73.4 64.4 74% 30.26 0.0
19 00:15 S 6 10.00 Fair CLR 73.4 64.4 74% 30.26 0.0
18 23:55 SE 7 10.00 Fair CLR 73.4 66.2 78% 30.26 0.0
18 23:35 SE 3 10.00 Fair CLR 73.4 66.2 78% 30.26 0.0
18 23:15 SE 6 10.00 Fair CLR 73.4 66.2 78% 30.26 0.0
18 22:55 SE 6 10.00 Fair CLR 75.2 68 78% 76 30.26 0.0
18 22:35 SE 7 10.00 Fair CLR 75.2 68 78% 76 30.26 0.0
18 22:15 SE 7 10.00 Fair CLR 77 68 74% 79 30.25 0.0
18 21:55 SE 6 10.00 Fair CLR 77 68 74% 79 30.25 0.0
18 21:35 SE 3 10.00 Fair CLR 77 68 74% 79 30.24 0.0
18 21:15 SE 6 10.00 Fair CLR 78.8 68 70% 81 30.23 0.0
18 20:55 SE 6 10.00 Fair CLR 78.8 68 70% 81 30.22 0.0
18 20:35 SE 5 10.00 Fair CLR 80.6 68 66% 83 30.22 0.0
18 20:15 SE 6 10.00 Fair CLR 82.4 68 62% 85 30.22 0.0
18 19:55 SE 6 10.00 Fair CLR 82.4 68 62% 85 30.21 0.0
18 19:35 SE 6 10.00 Partly Cloudy SCT048 84.2 68 58% 87 30.21 0.0
18 19:15 S 8 10.00 Partly Cloudy SCT048 86 68 55% 89 30.2 0.0
18 18:55 SE 6 10.00 Partly Cloudy SCT050 86 68 55% 89 30.2 0.0
18 18:35 SE 8 10.00 Partly Cloudy SCT050 87.8 68 52% 91 30.2 0.0
18 18:15 S 9 10.00 Partly Cloudy SCT050 87.8 68 52% 91 30.2 0.0
18 17:55 SE 9 10.00 Partly Cloudy SCT048 87.8 66.2 49% 90 30.19 0.0
18 17:35 SE 10 10.00 Fair CLR 87.8 68 52% 91 30.19 0.0
18 17:15 SE 12 10.00 Fair CLR 89.6 68 49% 93 30.19 0.0
18 16:55 SE 7 10.00 Fair CLR 89.6 66.2 46% 92 30.2 0.0
18 16:35 SE 9 G 16 10.00 Fair CLR 89.6 68 49% 93 30.2 0.0
18 16:15 S 9 G 17 10.00 Fair CLR 89.6 68 49% 93 30.2 0.0
18 15:55 E 10 G 18 10.00 Fair CLR 89.6 68 49% 93 30.21 0.0
18 15:35 SE 8 10.00 Partly Cloudy SCT046 89.6 68 49% 93 30.22 0.0
18 15:15 E 10 G 16 10.00 Fair CLR 89.6 68 49% 93 30.22 0.0
18 14:55 SE 10 G 16 10.00 Fair CLR 89.6 68 49% 93 30.22 0.0
18 14:35 SE 8 10.00 Fair CLR 89.6 68 49% 93 30.22 0.0
18 14:15 S 9 10.00 Partly Cloudy SCT047 89.6 68 49% 93 30.22 0.0
18 13:55 SE 8 10.00 Fair CLR 89.6 68 49% 93 30.22 0.0
18 13:35 SE 9 G 17 10.00 Partly Cloudy SCT039 89.6 69.8 52% 95 30.23 0.0
18 13:15 E 12 10.00 Fair CLR 89.6 69.8 52% 95 30.23 0.0
18 12:55 SE 9 10.00 Fair CLR 89.6 69.8 52% 95 30.23 0.0
18 12:35 SE 6 10.00 Fair CLR 89.6 69.8 52% 95 30.23 0.0
18 12:15 SE 7 10.00 Fair CLR 87.8 68 52% 91 30.23 0.0
18 11:55 SE 6 10.00 Fair CLR 87.8 69.8 55% 93 30.23 0.0
18 11:35 E 6 10.00 Fair CLR 86 69.8 59% 91 30.24 0.0
18 11:15 Calm 10.00 Fair CLR 84.2 69.8 62% 88 30.23 0.0
18 10:55 SE 3 10.00 Fair CLR 84.2 69.8 62% 88 30.23 0.0
18 10:35 SE 6 10.00 Fair CLR 82.4 69.8 66% 86 30.24 0.0
18 10:15 Calm 10.00 Fair CLR 80.6 69.8 70% 84 30.23 0.0
18 09:55 Calm 10.00 Fair CLR 80.6 69.8 70% 84 30.23 0.0
18 09:35 SE 6 10.00 Fair CLR 78.8 69.8 74% 81 30.24 0.0
18 09:15 SE 3 10.00 Fair CLR 78.8 69.8 74% 81 30.23 0.0
18 08:55 E 3 10.00 Fair CLR 77 69.8 79% 79 30.23 0.0
18 08:35 Calm 10.00 Fair CLR 77 69.8 79% 79 30.23 0.0
18 08:15 SE 3 10.00 Fair CLR 73.4 68 83% 30.22 0.0
18 07:55 Calm 10.00 Fair CLR 73.4 68 83% 30.21 0.0
18 07:35 Calm 10.00 Fair CLR 71.6 68 88% 30.21 0.0
18 07:15 Calm 10.00 Fair CLR 71.6 68 88% 30.2 0.0
18 06:55 SE 3 7.00 Fair CLR 69.8 68 94% 30.21 0.0
18 06:35 SE 3 5.00 Fog/Mist CLR 68 68 100% 30.2 0.0
18 06:15 Calm 5.00 Fog/Mist CLR 66.2 64.4 94% 30.19 0.0
18 05:55 E 3 7.00 Fair CLR 68 68 100% 30.19 0.0
18 05:35 Calm 7.00 Fair CLR 68 66.2 94% 30.19 0.0
18 05:15 Calm 10.00 Fair CLR 68 68 100% 30.17 0.0
18 04:55 Calm 10.00 Fair CLR 68 66.2 94% 30.17 0.0
18 04:35 Calm 10.00 Fair CLR 69.8 68 94% 30.16 0.0
18 04:15 Calm 10.00 Fair CLR 69.8 68 94% 30.16 0.0
18 03:55 Calm 10.00 Fair CLR 69.8 68 94% 30.16 0.0
18 03:35 Calm 10.00 Fair CLR 69.8 68 94% 30.16 0.0
18 03:15 Calm 10.00 Fair CLR 71.6 68 88% 30.16 0.0
18 02:55 Calm 10.00 Fair CLR 71.6 68 88% 30.15 0.0
18 02:35 Calm 10.00 Fair CLR 71.6 68 88% 30.16 0.0
18 02:15 S 3 10.00 Fair CLR 71.6 68 88% 30.16 0.0
18 01:55 S 3 10.00 Fair CLR 73.4 68 83% 30.16 0.0
18 01:35 S 3 10.00 Fair CLR 73.4 68 83% 30.16 0.0
18 01:15 Calm 10.00 Fair CLR 73.4 68 83% 30.16 0.0
18 00:55 S 5 10.00 Fair CLR 75.2 68 78% 76 30.15 0.0
18 00:35 SW 3 10.00 Fair CLR 77 68 74% 79 30.16 0.0
18 00:15 S 5 10.00 Fair CLR 77 68 74% 79 30.16 0.0
17 23:55 S 7 10.00 Fair CLR 77 68 74% 79 30.15 0.0
17 23:35 Calm 10.00 Fair CLR 77 68 74% 79 30.15 0.0
17 23:15 S 3 10.00 Fair CLR 77 68 74% 79 30.14 0.0
17 22:55 S 5 10.00 Fair CLR 77 69.8 79% 79 30.14 0.0
17 22:35 S 6 10.00 Fair CLR 78.8 69.8 74% 81 30.14 0.0
17 22:15 S 5 10.00 Fair CLR 78.8 68 70% 81 30.13 0.0
17 21:55 S 5 10.00 Fair CLR 78.8 68 70% 81 30.12 0.0
17 21:35 S 5 10.00 Fair CLR 78.8 68 70% 81 30.12 0.0
17 21:15 SE 5 10.00 Fair CLR 78.8 68 70% 81 30.13 0.0
17 20:55 SE 3 10.00 Fair CLR 80.6 68 66% 83 30.13 0.0
17 20:35 SE 5 10.00 Fair CLR 80.6 68 66% 83 30.12 0.0
17 20:15 S 6 10.00 Fair CLR 84.2 68 58% 87 30.12 0.0
17 19:55 SE 5 10.00 Fair CLR 86 68 55% 89 30.12 0.0
17 19:35 SE 8 10.00 Fair CLR 86 68 55% 89 30.12 0.0
17 19:15 SE 8 10.00 Fair CLR 86 68 55% 89 30.12 0.0
17 18:55 SE 8 10.00 Fair CLR 87.8 68 52% 91 30.11 0.0
17 18:35 SE 9 10.00 Fair CLR 87.8 66.2 49% 90 30.09 0.0
17 18:15 S 9 10.00 Fair CLR 87.8 66.2 49% 90 30.09 0.0
17 17:55 SE 7 10.00 Fair CLR 87.8 66.2 49% 90 30.08 0.0
17 17:35 SE 10 10.00 Fair CLR 89.6 68 49% 93 30.09 0.0
17 17:15 S 12 G 17 10.00 Partly Cloudy SCT050 89.6 68 49% 93 30.1 0.0
17 16:55 SE 7 10.00 Fair CLR 87.8 68 52% 91 30.1 0.0
17 16:35 SE 9 10.00 Fair CLR 89.6 68 49% 93 30.1 0.0
17 16:15 SE 10 10.00 Fair CLR 89.6 68 49% 93 30.11 0.0
17 15:55 SE 7 10.00 Fair CLR 89.6 68 49% 93 30.11 0.0
17 15:35 SE 12 G 16 10.00 Fair CLR 89.6 68 49% 93 30.12 0.0
17 15:15 SE 12 10.00 Partly Cloudy SCT049 89.6 68 49% 93 30.12 0.0
17 14:55 SE 9 10.00 Partly Cloudy SCT049 SCT110 87.8 68 52% 91 30.12 0.0
17 14:35 SE 8 10.00 Fair CLR 89.6 68 49% 93 30.12 0.0
17 14:15 E 8 10.00 Partly Cloudy SCT075 89.6 68 49% 93 30.12 0.0
17 13:55 E 9 10.00 Fair CLR 89.6 68 49% 93 30.12 0.0
17 13:35 SE 7 10.00 Partly Cloudy SCT050 89.6 68 49% 93 30.13 0.0
17 13:15 SE 6 10.00 Overcast OVC050 87.8 64.4 46% 89 30.13 0.0
17 12:55 SE 5 10.00 Partly Cloudy SCT050 87.8 64.4 46% 89 30.14 0.0
17 12:35 W 3 10.00 Fair CLR 87.8 64.4 46% 89 30.14 0.0
17 12:15 S 5 10.00 Fair CLR 86 66.2 52% 88 30.14 0.0
17 11:55 Calm 10.00 Fair CLR 86 66.2 52% 88 30.15 0.0
17 11:35 S 5 10.00 Fair CLR 86 64.4 49% 87 30.15 0.0
17 11:15 SE 3 10.00 Fair CLR 82.4 64.4 55% 84 30.15 0.0
17 10:55 SW 7 10.00 Fair CLR 82.4 64.4 55% 84 30.16 0.0
17 10:35 S 7 10.00 Fair CLR 82.4 62.6 51% 83 30.16 0.0
17 10:15 S 7 10.00 Fair CLR 80.6 62.6 54% 82 30.16 0.0
17 09:55 S 6 10.00 Fair CLR 80.6 62.6 54% 82 30.16 0.0
17 09:35 SW 7 10.00 Fair CLR 78.8 62.6 58% 80 30.17 0.0
17 09:15 SW 7 10.00 Partly Cloudy SCT065 77 62.6 61% 79 30.17 0.0
17 08:55 SW 6 10.00 Partly Cloudy SCT065 75.2 62.6 65% 77 30.17 0.0
17 08:35 SW 5 10.00 Fair CLR 73.4 62.6 69% 30.17 0.0
17 08:15 S 3 10.00 Fair CLR 71.6 60.8 69% 30.16 0.0
17 07:55 S 5 10.00 Fair CLR 69.8 60.8 73% 30.16 0.0
Date Time (edt) Wind (mph) Vis. (mi.) Weather Sky Cond. Air Dwpt Max. Min. Relative Humidity Wind Chill (°F) Heat Index (°F) altimeter (in) sea level (mb) 1 hr 3 hr 6 hr
6 hour
Temperature (ºF) Pressure Precipitation (in)